Flag for Hong Kong Weather past 2 weeks in Hong Kong, Hong Kong

Now
82 °F

Passing clouds.


Feels Like: 91 °F
Forecast: 81 / 85 °F
Wind: 6 mph from East

Location: National Airport

Current Time: Aug 31, 2015 at 9:52:49 PM

Latest Report: Aug 31, 2015 at 9:30 PM


Visibility: N/A

Pressure: 29.74 "Hg

Humidity: 84%

Dew point: 77 °F

Location of Hong KongLocation

Historic Weather in Hong Kong — Graph

°F

Hong Kong temperature yesterday

Maximum temperature yesterday: 82 °F (at 12:00 AM)
Minimum temperature yesterday: 81 °F (at 2:00 AM)
Average temperature yesterday: 81 °F

Past Weeks' High & Low Weather Summary

 TemperatureHumidityPressure
High95 °F (Aug 24, 4:30 PM)94% (Aug 21, 7:00 PM)29.80 "Hg (Aug 21, 7:00 PM)
Low77 °F (Aug 26, 1:30 PM)39% (Aug 24, 4:30 PM)29.47 "Hg (Aug 22, 4:00 PM)
Average86 °F72%29.68 "Hg
* Reported Aug 16 8:00 PM — Aug 31 8:30 PM, Hong Kong, Weather by CustomWeather, © 2015

Note: Actual official high and low records may vary slightly from our data, if they occured in-between our weather recording intervals... More about our weather records

Advertising

Hong Kong weather history for previous 24 hours

 ConditionsComfort  
Time TempWeatherWind HumidityBarometerVisibility
8:30 PM
Mon, Aug 31
82 °FPassing clouds.3 mph79%29.74 "HgN/A
8:00 PM82 °FPassing clouds.6 mph84%29.74 "HgN/A
7:30 PM82 °FSprinkles. Passing clouds.5 mph79%29.71 "HgN/A
7:00 PM82 °FPassing clouds.5 mph84%29.74 "HgN/A
6:30 PM82 °FSprinkles. Scattered clouds.6 mph79%29.74 "HgN/A
6:00 PM84 °FSprinkles. Scattered clouds.7 mph74%29.71 "HgN/A
5:30 PM82 °FScattered clouds.8 mph74%29.71 "HgN/A
5:00 PM84 °FScattered clouds.9 mph70%29.71 "HgN/A
4:30 PM84 °FScattered clouds.7 mph70%29.71 "HgN/A
4:00 PM84 °FScattered clouds.9 mph66%29.71 "HgN/A
3:30 PM84 °FScattered clouds.6 mph66%29.71 "HgN/A
3:00 PM84 °FPassing clouds.9 mph66%29.71 "HgN/A
2:30 PM84 °FPassing clouds.10 mph66%29.71 "HgN/A
2:00 PM82 °FScattered clouds.8 mph70%29.74 "HgN/A
1:30 PM82 °FScattered clouds.20 mph70%29.74 "HgN/A
1:00 PM86 °FScattered clouds.10 mph70%29.74 "HgN/A
12:30 PM86 °FScattered clouds.8 mph70%29.74 "HgN/A
12:00 PM86 °FScattered clouds.5 mph75%29.74 "HgN/A
11:30 AM86 °FScattered clouds.8 mph70%29.74 "HgN/A
11:00 AM86 °FScattered clouds.10 mph75%29.77 "HgN/A
10:30 AM86 °FScattered clouds.9 mph75%29.77 "HgN/A
10:00 AM84 °FScattered clouds.8 mph79%29.77 "HgN/A
9:30 AM84 °FScattered clouds.8 mph79%29.77 "HgN/A
9:00 AM82 °FScattered clouds.8 mph84%29.77 "HgN/A
8:30 AM82 °FScattered clouds.7 mph84%29.74 "HgN/A
8:00 AM82 °FScattered clouds.7 mph84%29.74 "HgN/A
7:30 AM82 °FPassing clouds.7 mph84%29.74 "HgN/A
7:00 AM81 °FPassing clouds.5 mph89%29.71 "HgN/A
6:30 AM81 °FPassing clouds.5 mph89%29.71 "HgN/A
6:00 AM81 °FPassing clouds.2 mph89%29.71 "HgN/A
5:30 AM81 °FPassing clouds.3 mph89%29.71 "HgN/A
5:00 AM79 °FPassing clouds.5 mph94%29.71 "HgN/A
4:30 AM81 °FPassing clouds.6 mph89%29.71 "HgN/A
4:00 AM81 °FPassing clouds.3 mph89%29.71 "HgN/A
3:30 AM81 °FPassing clouds.3 mph89%29.71 "HgN/A
3:00 AM81 °FPassing clouds.6 mph89%29.71 "HgN/A
2:30 AM81 °FSprinkles. Passing clouds.6 mph89%29.74 "HgN/A
2:00 AM81 °FSprinkles. Passing clouds.5 mph89%29.74 "HgN/A
1:30 AM81 °FPassing clouds.5 mph89%29.74 "HgN/A
1:00 AM81 °FLight rain. Passing clouds.7 mph89%29.74 "HgN/A
12:30 AM81 °FPassing clouds.2 mph84%29.74 "HgN/A
12:00 AM81 °FPassing clouds.5 mph84%29.74 "HgN/A
11:30 PM
Sun, Aug 30
81 °FPassing clouds.6 mph89%29.74 "HgN/A
11:00 PM81 °FPassing clouds.7 mph89%29.77 "HgN/A
10:30 PM82 °FPassing clouds.5 mph79%29.77 "HgN/A
10:00 PM81 °FPassing clouds.5 mph84%29.77 "HgN/A
9:30 PM81 °FPassing clouds.6 mph89%29.74 "HgN/A
9:00 PM81 °FPassing clouds.7 mph84%29.74 "HgN/A
Weather by CustomWeather, © 2015

See weather overviewHow to use our weather pages